CW9721 Weather Reports


time (UTC)temp
C
wind
direction
speed
KPH
gust
KPH
rain 1hr
cm
rain 24hr
cm
rain mn
cm
humidity
%
barometer
mb
20260504011919 11 187 3.2 8.0 0.00 0.00 0.00 64 1016.1
20260504010825 11 168 1.6 8.0 0.00 0.00 0.00 61 1016.1
20260504010358 11 107 3.2 9.7 0.00 0.00 0.00 59 1016.1
20260504005902 11 162 3.2 9.7 0.00 0.00 0.00 57 1016.0
20260504005350 11 206 1.6 6.4 0.00 0.00 0.00 55 1015.9
20260504004344 12 341 0.0 3.2 0.00 0.00 0.00 53 1015.6
20260504003854 12 341 1.6 3.2 0.00 0.00 0.00 51 1015.5
20260504002831 12 341 0.0 1.6 0.00 0.00 0.00 49 1015.4
20260504002338 12 341 0.0 1.6 0.00 0.00 0.00 48 1015.2
20260504001834 13 341 0.0 1.6 0.00 0.00 0.00 47 1015.1
20260504001329 13 341 0.0 1.6 0.00 0.00 0.00 47 1015.1
20260504000846 13 341 0.0 1.6 0.00 0.00 0.00 46 1015.1
20260504000354 13 341 1.6 1.6 0.00 0.00 0.00 45 1015.0
20260503235855 13 341 0.0 1.6 0.00 0.00 0.00 42 1015.0
20260503235416 14 341 0.0 3.2 0.00 0.00 0.00 41 1014.9
20260503234827 14 355 1.6 6.4 0.00 0.00 0.00 42 1014.9
20260503234328 14 252 1.6 8.0 0.00 0.00 0.00 40 1014.8
20260503233835 15 238 3.2 8.0 0.00 0.00 0.00 39 1014.8
20260503233351 15 250 3.2 8.0 0.00 0.00 0.00 38 1014.8
20260503232903 15 238 3.2 8.0 0.00 0.00 0.00 37 1014.8
20260503232404 15 294 4.8 8.0 0.00 0.00 0.00 38 1014.9
20260503231858 15 281 1.6 6.4 0.00 0.00 0.00 38 1014.7
20260503231429 15 194 1.6 0.0 0.00 0.00 0.00 38 1014.5
20260503230827 15 13 1.6 8.0 0.00 0.00 0.00 38 1014.5
20260503230344 15 306 1.6 8.0 0.00 0.00 0.00 38 1014.6
20260503225853 15 277 1.6 9.7 0.00 0.00 0.00 37 1014.6
20260503225359 15 228 1.6 14.5 0.00 0.00 0.00 37 1014.8
20260503224851 15 346 1.6 12.9 0.00 0.00 0.00 37 1014.7
20260503224357 15 240 1.6 12.9 0.00 0.00 0.00 36 1014.7
20260503223437 15 242 6.4 14.5 0.00 0.00 0.00 37 1014.7
20260503222925 15 310 3.2 16.1 0.00 0.00 0.00 35 1014.7
20260503222407 16 259 4.8 22.5 0.00 0.00 0.00 35 1014.7
20260503221827 16 5 8.0 22.5 0.00 0.00 0.00 34 1014.6
20260503221334 16 229 4.8 14.5 0.00 0.00 0.00 34 1014.5
20260503220834 16 134 6.4 14.5 0.00 0.00 0.00 35 1014.7
20260503220340 16 230 4.8 12.9 0.00 0.00 0.00 34 1014.6
20260503215841 16 300 3.2 11.3 0.00 0.00 0.00 34 1014.6
20260503215343 16 291 4.8 17.7 0.00 0.00 0.00 32 1014.6
20260503214841 17 316 4.8 17.7 0.00 0.00 0.00 32 1014.6
20260503214402 17 226 6.4 16.1 0.00 0.00 0.00 31 1014.6
20260503213911 17 302 6.4 12.9 0.00 0.00 0.00 31 1014.5
20260503213420 17 250 4.8 14.5 0.00 0.00 0.00 31 1014.6
20260503212930 17 256 4.8 20.9 0.00 0.00 0.00 33 1014.6
20260503211832 17 322 8.0 19.3 0.00 0.00 0.00 31 1014.6
20260503211338 17 335 4.8 12.9 0.00 0.00 0.00 32 1014.5
20260503210843 18 225 8.0 25.7 0.00 0.00 0.00 31 1014.6
20260503205848 17 213 1.6 14.5 0.00 0.00 0.00 31 1014.4
20260503205354 17 214 6.4 16.1 0.00 0.00 0.00 31 1014.5
20260503204848 17 235 6.4 19.3 0.00 0.00 0.00 33 1014.4
20260503204358 17 21 9.7 22.5 0.00 0.00 0.00 31 1014.4
20260503203909 17 291 4.8 20.9 0.00 0.00 0.00 33 1014.5
20260503203327 17 293 11.3 20.9 0.00 0.00 0.00 31 1014.5
20260503202936 17 226 6.4 14.5 0.00 0.00 0.00 33 1014.4
20260503202418 18 319 9.7 17.7 0.00 0.00 0.00 32 1014.5
20260503201905 18 355 8.0 14.5 0.00 0.00 0.00 32 1014.5
20260503201347 17 9 6.4 12.9 0.00 0.00 0.00 32 1014.6
20260503200837 17 242 6.4 12.9 0.00 0.00 0.00 34 1014.6
20260503200340 17 327 4.8 17.7 0.00 0.00 0.00 34 1014.7
20260503195842 17 13 8.0 24.1 0.00 0.00 0.00 33 1014.7
20260503194934 17 32 9.7 19.3 0.00 0.00 0.00 35 1014.7
20260503194406 17 17 8.0 19.3 0.00 0.00 0.00 34 1014.6
20260503193910 17 313 8.0 19.3 0.00 0.00 0.00 34 1015.0
20260503193404 17 312 8.0 16.1 0.00 0.00 0.00 33 1015.0
20260503192913 17 301 6.4 14.5 0.00 0.00 0.00 33 1015.1
20260503191824 17 148 4.8 19.3 0.00 0.00 0.00 35 1015.1
20260503191350 17 32 6.4 19.3 0.00 0.00 0.00 35 1015.2
20260503190420 17 338 11.3 24.1 0.00 0.00 0.00 35 1015.3
20260503185854 17 194 6.4 20.9 0.00 0.00 0.00 36 1015.4
20260503185402 17 150 6.4 25.7 0.00 0.00 0.00 34 1015.4
20260503184834 17 336 11.3 25.7 0.00 0.00 0.00 35 1015.4
20260503184337 17 264 4.8 20.9 0.00 0.00 0.00 35 1015.4
20260503183857 17 279 8.0 20.9 0.00 0.00 0.00 37 1015.5
20260503183407 16 168 8.0 19.3 0.00 0.00 0.00 35 1015.4
20260503182345 17 189 11.3 20.9 0.00 0.00 0.00 36 1015.6
20260503181912 17 277 8.0 17.7 0.00 0.00 0.00 36 1015.4
20260503181408 16 32 3.2 16.1 0.00 0.00 0.00 39 1015.5
20260503180916 16 187 6.4 19.3 0.00 0.00 0.00 37 1015.4
20260503180404 16 241 6.4 19.3 0.00 0.00 0.00 38 1015.7
20260503175921 16 319 8.0 20.9 0.00 0.03 0.00 37 1015.7
20260503175357 16 355 14.5 24.1 0.00 0.03 0.00 37 1015.4
20260503174331 16 273 8.0 19.3 0.00 0.03 0.00 37 1015.9
20260503173846 16 333 8.0 19.3 0.00 0.03 0.00 39 1015.8
20260503173346 15 279 6.4 20.9 0.00 0.03 0.00 38 1016.0
20260503172847 15 309 11.3 24.1 0.00 0.03 0.00 38 1015.9
20260503172338 15 36 9.7 22.5 0.00 0.03 0.00 37 1016.1
20260503171836 15 338 8.0 33.8 0.00 0.03 0.00 36 1016.1
20260503171349 16 267 6.4 33.8 0.00 0.03 0.00 37 1016.1
20260503170857 16 5 11.3 24.1 0.00 0.03 0.00 36 1016.0
20260503170413 16 59 8.0 17.7 0.00 0.03 0.00 38 1016.1
20260503150927 13 319 6.4 20.9 0.00 0.08 0.00 47 1016.4
20260503150335 13 345 8.0 32.2 0.00 0.08 0.00 42 1016.5
20260503130913 12 316 14.5 24.1 0.00 0.08 0.00 53 1016.0
20260503130407 12 14 9.7 24.1 0.00 0.08 0.00 52 1016.0
20260503110825 11 34 11.3 17.7 0.00 0.08 0.00 56 1014.6
20260503110325 11 360 8.0 30.6 0.00 0.08 0.00 59 1014.6
20260503090351 12 21 9.7 22.5 0.00 0.08 0.00 64 1012.4
20260503081342 11 348 4.8 22.5 0.00 0.08 0.00 65 1011.9
20260503080850 11 345 6.4 22.5 0.00 0.08 0.00 66 1011.8
20260503080410 11 330 8.0 20.9 0.00 0.08 0.00 67 1011.6
20260503072858 9 284 1.6 3.2 0.00 0.08 0.00 76 1011.6
20260503072401 9 234 1.6 3.2 0.00 0.08 0.00 76 1011.4
20260503071931 9 232 0.0 8.0 0.00 0.08 0.00 75 1011.4
20260503070919 9 234 0.0 6.4 0.00 0.08 0.00 74 1011.0
20260503070333 10 229 1.6 6.4 0.00 0.08 0.00 74 1011.0
20260503054837 11 298 1.6 11.3 0.00 0.08 0.00 71 1010.4
20260503054509 11 317 1.6 6.4 0.00 0.08 0.00 70 1010.4
20260503054348 11 321 1.6 6.4 0.00 0.08 0.00 70 1010.4
20260503053835 11 336 0.0 3.2 0.00 0.08 0.00 70 1010.6
20260503053332 11 307 0.0 3.2 0.00 0.08 0.00 70 1010.8
20260503053108 11 307 0.0 3.2 0.00 0.08 0.00 69 1010.7
20260503052826 11 233 1.6 3.2 0.00 0.08 0.00 69 1010.8
20260503052342 11 5 0.0 6.4 0.00 0.08 0.00 69 1010.8
20260503051859 12 298 0.0 4.8 0.00 0.08 0.00 69 1010.9
20260503051509 11 280 1.6 6.4 0.00 0.08 0.00 68 1010.9
20260503051353 12 269 1.6 8.0 0.00 0.08 0.00 68 1010.8
20260503050846 12 230 1.6 8.0 0.00 0.08 0.00 68 1010.7
20260503050020 12 236 1.6 9.7 0.00 0.08 0.00 67 1010.6
20260503045841 12 304 1.6 9.7 0.00 0.08 0.00 67 1010.7
20260503045334 12 311 3.2 8.0 0.00 0.08 0.00 67 1010.8
20260503044825 12 300 0.0 6.4 0.00 0.08 0.00 66 1010.8
20260503044608 12 302 0.0 6.4 0.00 0.08 0.00 66 1010.8
20260503044403 12 279 1.6 8.0 0.00 0.08 0.00 65 1010.8
20260503043900 12 341 3.2 8.0 0.00 0.08 0.00 65 1010.7
20260503043333 12 324 1.6 8.0 0.00 0.08 0.00 64 1010.7
20260503043006 12 323 1.6 8.0 0.00 0.08 0.00 63 1010.7
20260503042828 12 276 1.6 8.0 0.00 0.08 0.00 63 1010.8
20260503042322 12 334 1.6 9.7 0.00 0.08 0.00 62 1010.8
20260503041838 13 317 1.6 9.7 0.00 0.08 0.00 62 1010.8
20260503041612 12 263 3.2 9.7 0.00 0.08 0.00 62 1010.8
20260503041335 13 306 3.2 9.7 0.00 0.08 0.00 62 1010.8
20260503040826 13 340 3.2 12.9 0.00 0.08 0.00 62 1010.9
20260503040322 13 307 4.8 12.9 0.00 0.08 0.00 62 1010.9
20260503040110 12 325 6.4 12.9 0.00 0.08 0.08 62 1010.9
20260503035328 13 333 4.8 16.1 0.00 0.08 0.08 61 1010.8
20260503034903 13 349 4.8 16.1 0.00 0.08 0.08 60 1010.9
20260503034357 13 325 8.0 14.5 0.00 0.08 0.08 60 1010.9
20260503033850 13 326 3.2 14.5 0.00 0.08 0.08 60 1010.8
20260503033338 13 337 6.4 20.9 0.00 0.08 0.08 59 1010.8
20260503032847 13 22 4.8 16.1 0.00 0.08 0.08 60 1010.7
20260503032420 13 290 8.0 16.1 0.00 0.08 0.08 60 1010.5
20260503031921 13 321 6.4 12.9 0.00 0.08 0.08 60 1010.4
20260503031401 13 326 6.4 16.1 0.00 0.08 0.08 60 1010.5
20260503030908 13 316 6.4 14.5 0.00 0.08 0.08 60 1010.6
20260503030418 13 335 8.0 20.9 0.00 0.08 0.08 60 1010.6
20260503025912 13 5 11.3 20.9 0.00 0.08 0.08 59 1010.7
20260503025417 13 351 3.2 17.7 0.00 0.08 0.08 60 1010.9
20260503024849 13 318 8.0 14.5 0.00 0.08 0.08 60 1010.9
20260503024346 13 10 4.8 11.3 0.00 0.08 0.08 61 1010.8
20260503023844 13 312 6.4 12.9 0.00 0.08 0.08 60 1010.8
20260503023351 13 14 4.8 14.5 0.00 0.08 0.08 61 1010.8
20260503022903 13 360 6.4 16.1 0.00 0.08 0.08 60 1010.9
20260503021841 13 17 8.0 14.5 0.00 0.08 0.08 60 1010.8
20260503021344 13 350 4.8 16.1 0.00 0.08 0.08 60 1010.9
20260503020907 13 360 9.7 16.1 0.00 0.08 0.08 60 1010.8
20260503015338 13 325 8.0 14.5 0.00 0.08 0.08 60 1010.9
20260503014845 13 19 4.8 19.3 0.00 0.08 0.08 61 1010.8
20260503013839 13 355 8.0 17.7 0.00 0.08 0.08 59 1010.6
20260503013345 13 346 11.3 17.7 0.00 0.08 0.08 59 1010.5
20260503012332 13 355 11.3 25.7 0.00 0.08 0.08 59 1010.4